Regional Weather Roundup
Issued by NWS Columbia, SC

Home | Current Version | Previous Version | Text Only | Print | Product List | Glossary On
Versions: 1 2 3 4 5 6 7 8 9 10 11 12 13 14 15 16 17 18 19 20 21 22 23 24 25 26 27 28 29 30 31 32 33 34 35 36 37 38 39 40 41 42 43 44 45 46 47 48 49 50
000
ASUS42 KCAE 110310
RWRCAE
REGIONAL WEATHER ROUNDUP
NATIONAL WEATHER SERVICE COLUMBIA SC
1000 PM EST WED FEB 10 2016

NOTE: "FAIR" INDICATES FEW OR NO CLOUDS BELOW 12,000 FEET WITH NO
SIGNIFICANT WEATHER AND/OR OBSTRUCTIONS TO VISIBILITY.

NOT ALL STATIONS ARE QUALITY CONTROLLED BY THE NATIONAL
WEATHER SERVICE. USE DATA WITH CAUTION...ESPECIALLY
DEWPOINT OBSERVATIONS.

SCZ001>056-GAZ040-063>065-077-110400-
...UPSTATE SOUTH CAROLINA...

CITY           SKY/WX    TMP DP  RH WIND       PRES   REMARKS
ANDERSON       CLEAR     31   8  38 W17       30.10R WCI  19
LIBERTY        CLEAR     28   6  39 W8        30.07R WCI  20
SPARTANBURG    PTCLDY    30   7  37 W7        30.07R WCI  23
CLEMSON        CLEAR     31   8  38 W15G23    30.10R WCI  20
GREENVILLE     CLEAR     29   4  34 W12       30.07R WCI  19
GREENWOOD      CLEAR     31   8  38 W8        30.12R WCI  23
GREER          PTCLDY    28   9  44 W8        30.06R WCI  20
ROCK HILL      PTCLDY    25  11  55 W3        30.07R
CHESTER        PTCLDY    30   7  37 W3        30.08
LAURENS        CLEAR     32   9  37 W6        30.08R WCI  26


...CENTRAL SOUTH CAROLINA...

CITY           SKY/WX    TMP DP  RH WIND       PRES   REMARKS
COLUMBIA APT   CLEAR     31  10  41 CALM      30.11R
COLUMBIA OWENS CLEAR     32  12  43 SW3       30.12R
MCENTIRE ANGB  CLEAR     30  11  43 W7        30.11R WCI  24
ORANGEBURG     CLEAR     31  14  49 CALM      30.13S
SUMTER SHAW    CLEAR     31  11  42 W9        30.08S WCI  23
NEWBERRY       CLEAR     32  10  40 W10       30.12R WCI  24
AIKEN          FAIR      30  12  47 W6        30.14S WCI  24
BARNWELL       FAIR      32  16  51 CALM      30.14S
MANNING        FAIR      32  12  43 CALM      30.13S
CAMDEN         FAIR      32  32 100 W12       30.09S WCI  23
LANCASTER      CLEAR     28   9  43 SW6       30.07R WCI  22
WINNSBORO      CLEAR     32  12  43 W7        30.07R WCI  26


...EASTERN AND COASTAL SOUTH CAROLINA...

CITY           SKY/WX    TMP DP  RH WIND       PRES   REMARKS
MYRTLE BEACH   CLEAR     34  12  40 W9        30.12R WCI  26
N MYRTLE BCH   CLEAR     34  15  46 W7        30.10R WCI  28
CONWAY         FAIR      32  14  47 SW7       30.11R WCI  26
MARION         FAIR      34  14  44 SW9       30.10R WCI  26
HARTSVILLE     FAIR      32  12  43 W7        30.07S WCI  26
FLORENCE       CLOUDY    32  13  45 W9        30.09R WCI  24
DARLINGTON     MOCLDY    32  10  40 W9        30.09S WCI  24
CHARLESTON APT CLEAR     33  14  45 W5        30.14R WCI  29
MOUNT PLEASANT FAIR      36  16  44 SW7       30.15R WCI  30
WALTERBORO     CLEAR     34  18  51 SW3       30.15S
BEAUFORT       CLEAR     33  18  53 SW8       30.17R WCI  26


...EASTERN GEORGIA...

CITY           SKY/WX    TMP DP  RH WIND       PRES   REMARKS
AUGUSTA BUSH F CLOUDY    32  16  51 W5        30.15R WCI  27
THOMSON        CLOUDY    36  17  46 W3        30.18R
WASHINGTON     FAIR      37  18  44 W13G18    30.13R WCI  29
CLAXTON        FAIR      37  23  56 SW5       30.17F WCI  33
SYLVANIA       CLOUDY    36  21  54 CALM      30.15F
STATESBORO     PTCLDY    39  11  31 W6        30.15F
SAVANNAH       CLEAR     35  16  45 SW6       30.19R WCI  30


...SOUTHERN NORTH CAROLINA...

CITY           SKY/WX    TMP DP  RH WIND       PRES   REMARKS
CHARLOTTE      MOCLDY    27   4  37 CALM      30.06R
MONROE         CLEAR     28   5  37 CALM      30.05R
WADESBORO      PTCLDY    29   7  38 CALM      30.07S
ROCKINGHAM     PTCLDY    29   9  43 NW3       30.06R
RUTHERFORDTON  CLOUDY    27   2  34 NW7       30.05R WCI  20
ASHEVILLE      PTCLDY    23   1  38 N9        30.01R WCI  13

$$



USA.gov is the U.S. government's official web portal to all federal, state and local government web resources and services.